Date,TemperatureHighF,TemperatureAvgF,TemperatureLowF,DewpointHighF,DewpointAvgF,DewpointLowF,HumidityHigh,HumidityAvg,HumidityLow,PressureMaxIn,PressureMinIn,WindSpeedMaxMPH,WindSpeedAvgMPH,GustSpeedMaxMPH,PrecipitationSumIn
2013-2-1,44,37,28,31,18,10,78,49,26,30.45,30.20,7,1,11,0.00
2013-2-2,52,38,25,41,27,16,95,68,35,30.39,30.16,10,1,11,0.02
2013-2-3,59,45,31,40,32,27,96,65,32,30.22,30.09,10,1,16,0.00
2013-2-4,51,42,32,36,31,26,84,65,40,30.15,30.00,5,1,8,0.00
2013-2-5,55,50,44,52,45,35,96,84,67,30.07,29.97,3,0,5,0.04
2013-2-6,67,54,44,50,41,34,97,66,31,30.21,30.07,3,1,7,0.01
2013-2-7,54,48,46,48,45,36,95,89,51,30.11,29.91,6,1,10,0.03
2013-2-8,53,46,34,51,44,31,95,90,73,30.26,29.95,5,1,6,0.03
2013-2-9,62,45,31,38,33,29,94,66,30,30.34,30.19,9,1,11,0.00
2013-2-10,58,53,50,56,46,35,95,77,55,30.20,29.97,12,4,21,1.49
2013-2-11,58,53,48,56,52,47,96,95,92,30.16,29.98,10,1,14,0.36
2013-2-12,48,45,42,47,43,38,97,92,70,30.18,29.79,7,2,11,0.31
2013-2-13,48,44,35,47,41,33,96,88,78,30.05,29.75,11,2,20,0.01
2013-2-14,57,44,34,40,36,32,95,76,44,30.14,30.05,5,0,9,0.00
2013-2-15,63,47,31,42,36,30,95,69,37,30.16,30.03,8,1,13,0.00
2013-2-16,44,38,28,38,24,17,80,61,36,30.25,30.05,10,1,16,0.00
2013-2-17,51,37,22,22,17,9,83,50,21,30.36,30.25,5,1,13,0.00
2013-2-18,60,49,34,35,28,17,67,46,32,30.32,29.98,15,5,31,0.00
2013-2-19,58,48,36,48,34,20,95,64,27,30.24,29.96,11,2,22,0.37
2013-2-20,47,38,28,25,21,11,85,53,24,30.28,30.14,4,1,9,0.00
2013-2-21,62,48,32,46,28,18,94,53,22,30.18,29.88,14,2,19,0.91
2013-2-22,52,49,46,50,48,45,96,95,93,30.08,29.94,6,1,11,0.35
2013-2-23,59,48,39,52,46,38,96,91,74,29.98,29.87,4,0,10,0.04
2013-2-24,65,49,32,42,36,31,97,67,35,30.08,29.94,4,1,7,0.00
2013-2-25,57,49,42,51,42,30,94,80,50,29.94,29.58,14,4,20,0.84
2013-2-26,50,47,43,49,40,33,95,78,64,29.85,29.50,19,5,23,0.24
2013-2-27,59,48,38,37,34,32,83,60,38,29.95,29.85,10,2,21,0.00
2013-2-28,46,40,35,33,29,26,82,67,50,30.08,29.93,12,2,14,0.00